Weather History for Grand Rapids, MI

Change the Weather History Date:

Sunday, January 8, 2012

  Actual Average Record
Temperature  
Mean Temperature 30 °F 25 °F  
Max Temperature 40 °F 31 °F 59 °F (1965)
Min Temperature 20 °F 18 °F -13 °F (1988)
Degree Days  
Heating Degree Days 35 40  
Month to date heating degree days 260 320  
Since 1 July heating degree days 2355 2769  
Cooling Degree Days 0 0  
Month to date cooling degree days 0 0  
Year to date cooling degree days 0 0  
Moisture  
Dew Point 23 °F    
Average Humidity 73    
Maximum Humidity 92    
Minimum Humidity 54    
Precipitation  
Precipitation 0.00 in 0.08 in 0.74 in (1937)
Month to date precipitation 0.25 0.62  
Year to date precipitation 0.25 0.62  
Snow  
Snow 0.00 in 0.70 in 5.00 in (1952)
Month to date snowfall 4.6 5.8  
Since 1 July snowfall 9.8 35.0  
Snow Depth 0.00 in    
Sea Level Pressure  
Sea Level Pressure 30.32 in    
Wind  
Wind Speed 5 mph (SW)    
Max Wind Speed 14 mph    
Max Gust Speed 16 mph    
Visibility 10 miles    
Events      
T = Trace of Precipitation, MM = Missing Value Source: NWS Daily Summary

Daily Weather History Graph

Daily Weather History Graph

Search for Another Location

Airport:

Trip Planner

Search our weather history database for the weather conditions in past years. The results will help you decide how hot, cold, wet, or windy it might be!

Date:

Astronomy

Jan. 08, 2012 Rise Set
Actual Time 8:12 AM EST 5:24 PM EST
Civil Twilight 7:40 AM EST 5:56 PM EST
Nautical Twilight 7:05 AM EST 6:32 PM EST
Astronomical Twilight 6:31 AM EST 7:06 PM EST
Moon 5:07 PM EST (1/8) 7:30 AM EST (1/8)
Length of Visible Light 10h 15m
Length of Day
9h 12m
Full, 100% of the Moon is Illuminated
Jan 8
Full
Jan 9
Full
Jan 16
Last Quarter
Jan 23
New
Jan 30
First Quarter

Hourly Weather History & Observations

Time (EST) Temp. Windchill Dew Point Humidity Pressure Visibility Wind Dir Wind Speed Gust Speed Precip Events Conditions
12:53 AM 30.0 °F 26.5 °F 21.9 °F 72% 30.24 in 10.0 mi NW 3.5 mph - N/A   Clear
1:53 AM 30.0 °F 26.5 °F 21.9 °F 72% 30.25 in 10.0 mi NNW 3.5 mph - N/A   Clear
2:53 AM 27.0 °F - 19.9 °F 75% 30.27 in 10.0 mi Calm Calm - N/A   Clear
3:53 AM 26.1 °F - 19.0 °F 75% 30.28 in 10.0 mi Calm Calm - N/A   Clear
4:53 AM 24.1 °F - 19.0 °F 81% 30.30 in 10.0 mi Calm Calm - N/A   Clear
5:53 AM 23.0 °F - 19.0 °F 85% 30.31 in 10.0 mi Calm Calm - N/A   Clear
6:53 AM 24.1 °F - 19.0 °F 81% 30.32 in 10.0 mi Calm Calm - N/A   Clear
7:53 AM 21.2 °F - 17.6 °F 86% 30.30 in 10.0 mi Calm Calm - N/A   Partly Cloudy
8:53 AM 21.9 °F - 19.0 °F 89% 30.35 in 10.0 mi Calm Calm - N/A   Partly Cloudy
9:53 AM 28.0 °F - 23.0 °F 81% 30.36 in 10.0 mi Calm Calm - N/A   Partly Cloudy
10:53 AM 33.1 °F 27.7 °F 24.1 °F 70% 30.38 in 10.0 mi SSE 5.8 mph - N/A   Partly Cloudy
11:53 AM 36.0 °F 32.1 °F 25.0 °F 64% 30.35 in 10.0 mi South 4.6 mph - N/A   Partly Cloudy
12:53 PM 39.0 °F 33.4 °F 24.1 °F 55% 30.34 in 10.0 mi WSW 8.1 mph - N/A   Scattered Clouds
1:53 PM 39.9 °F 33.9 °F 26.1 °F 58% 30.33 in 10.0 mi West 9.2 mph - N/A   Mostly Cloudy
2:53 PM 39.0 °F 31.4 °F 27.0 °F 62% 30.32 in 10.0 mi WSW 12.7 mph - N/A   Mostly Cloudy
3:53 PM 37.9 °F 30.9 °F 27.0 °F 65% 30.33 in 10.0 mi WSW 10.4 mph - N/A   Mostly Cloudy
4:53 PM 36.0 °F 28.5 °F 27.0 °F 70% 30.34 in 10.0 mi WSW 10.4 mph - N/A   Mostly Cloudy
5:53 PM 33.1 °F 27.7 °F 27.0 °F 78% 30.33 in 10.0 mi WSW 5.8 mph - N/A   Mostly Cloudy
6:53 PM 33.1 °F 28.7 °F 26.1 °F 75% 30.33 in 10.0 mi SSW 4.6 mph - N/A   Overcast
7:53 PM 30.0 °F 24.1 °F 25.0 °F 82% 30.33 in 10.0 mi SSW 5.8 mph - N/A   Mostly Cloudy
8:53 PM 30.9 °F 24.3 °F 25.0 °F 79% 30.32 in 10.0 mi SSW 6.9 mph - N/A   Mostly Cloudy
9:53 PM 30.9 °F 24.3 °F 25.0 °F 79% 30.31 in 10.0 mi SSW 6.9 mph - N/A   Scattered Clouds
10:53 PM 30.9 °F 24.3 °F 25.0 °F 79% 30.30 in 10.0 mi SSW 6.9 mph - N/A   Partly Cloudy
11:53 PM 28.0 °F 22.8 °F 24.1 °F 85% 30.29 in 8.0 mi SSW 4.6 mph - N/A   Clear